Weather History for KANJ - September, 2012

Change the Weather History Date:

Tuesday, September 25, 2012

  Actual Average Record
Temperature  
Mean Temperature 48 °F 54 °F  
Max Temperature 60 °F 63 °F 83 °F (1908)
Min Temperature 35 °F 45 °F 25 °F (1947)
Degree Days  
Heating Degree Days 17 12  
Month to date heating degree days 218 191  
Since 1 July heating degree days 259 338  
Cooling Degree Days 0 0  
Month to date cooling degree days 23 15  
Year to date cooling degree days 402 193  
Moisture  
Dew Point 38 °F    
Average Humidity 65    
Maximum Humidity 92    
Minimum Humidity 37    
Precipitation  
Precipitation 0.00 in 0.14 in 1.48 in (1915)
Month to date precipitation 1.80 3.18  
Year to date precipitation 18.95 22.35  
Sea Level Pressure  
Sea Level Pressure 29.85 in    
Wind  
Wind Speed 4 mph (NNW)    
Max Wind Speed 10 mph    
Max Gust Speed 14 mph    
Visibility 8 miles    
Events      
T = Trace of Precipitation, MM = Missing Value Source: NWS Daily Summary

Daily Weather History Graph

Daily Weather History Graph

Search for Another Location

Airport or City:

Trip Planner

Search our weather history database for the weather conditions in past years. The results will help you decide how hot, cold, wet, or windy it might be!

Date:

Astronomy

Sep. 25, 2012 Rise Set
Actual Time 7:28 AM EDT 7:28 PM EDT
Civil Twilight 6:58 AM EDT 7:58 PM EDT
Nautical Twilight 6:23 AM EDT 8:33 PM EDT
Astronomical Twilight 5:47 AM EDT 9:09 PM EDT
Moon 5:04 PM EDT (9/25) 2:35 AM EDT (9/25)
Length of Visible Light 12h 59m
Length of Day
11h 59m
Waxing Gibbous, 80% of the Moon is Illuminated
Sep 25
Waxing Gibbous
Sep 29
Full
Oct 8
Last Quarter
Oct 15
New
Oct 21
First Quarter

Hourly Weather History & Observations

Time (EDT) Temp. Windchill Dew Point Humidity Pressure Visibility Wind Dir Wind Speed Gust Speed Precip Events Conditions
12:55 AM 46.9 °F - 41.0 °F 80% 29.76 in 10.0 mi Calm Calm - N/A   Clear
1:55 AM 46.9 °F - 39.0 °F 74% 29.78 in 10.0 mi Variable 3.5 mph - N/A   Clear
2:53 AM 39.2 °F - 37.4 °F 93% 29.79 in 2.5 mi Calm Calm - N/A   Clear
2:55 AM 39.9 °F - 37.9 °F 93% 29.80 in 2.5 mi Calm Calm - N/A   Clear
3:29 AM 39.9 °F - 36.0 °F 86% 29.80 in 1.5 mi Calm Calm - N/A   Clear
3:55 AM 39.0 °F - 36.0 °F 89% 29.81 in 0.8 mi Calm Calm - N/A   Clear
4:07 AM 37.9 °F - 36.0 °F 93% 29.81 in 2.0 mi Calm Calm - N/A   Clear
4:19 AM 37.9 °F - 35.1 °F 89% 29.81 in 0.8 mi Calm Calm - N/A   Clear
4:40 AM 39.9 °F 37.8 °F 36.0 °F 86% 29.82 in 2.5 mi North 3.5 mph - N/A   Clear
4:47 AM 39.9 °F 36.7 °F 37.9 °F 93% 29.82 in 9.0 mi North 4.6 mph - N/A   Clear
4:55 AM 41.0 °F 39.0 °F 37.9 °F 89% 29.83 in 7.0 mi NNW 3.5 mph - N/A   Clear
5:09 AM 39.9 °F 37.8 °F 37.9 °F 93% 29.83 in 2.5 mi North 3.5 mph - N/A   Partly Cloudy
5:18 AM 39.9 °F 36.7 °F 37.9 °F 93% 29.83 in 6.0 mi North 4.6 mph - N/A   Partly Cloudy
5:55 AM 42.1 °F 37.7 °F 37.9 °F 85% 29.83 in 10.0 mi NNE 6.9 mph - N/A   Clear
6:55 AM 41.0 °F 38.0 °F 36.0 °F 82% 29.85 in 10.0 mi NE 4.6 mph - N/A   Clear
7:55 AM 36.0 °F - 34.0 °F 93% 29.88 in 10.0 mi Calm Calm - N/A   Clear
8:55 AM 43.0 °F - 37.9 °F 82% 29.88 in 10.0 mi Calm Calm - N/A   Clear
9:55 AM 44.1 °F 42.5 °F 41.0 °F 89% 29.90 in 10.0 mi SE 3.5 mph - N/A   Partly Cloudy
10:55 AM 48.9 °F - 41.0 °F 74% 29.91 in 10.0 mi ESE 4.6 mph - N/A   Partly Cloudy
11:55 AM 52.0 °F - 41.0 °F 66% 29.91 in 10.0 mi Calm Calm - N/A   Clear
12:55 PM 54.0 °F - 39.9 °F 59% 29.90 in 10.0 mi Variable 3.5 mph - N/A   Partly Cloudy
1:55 PM 55.0 °F - 37.9 °F 53% 29.87 in 10.0 mi Calm Calm - N/A   Clear
2:55 PM 57.9 °F - 39.0 °F 49% 29.86 in 10.0 mi Variable 6.9 mph - N/A   Clear
3:55 PM 59.0 °F - 37.9 °F 46% 29.86 in 10.0 mi Variable 4.6 mph - N/A   Clear
4:55 PM 59.0 °F - 33.1 °F 38% 29.86 in 10.0 mi West 4.6 mph - N/A   Clear
5:55 PM 57.0 °F - 35.1 °F 44% 29.87 in 10.0 mi NW 6.9 mph - N/A   Mostly Cloudy
6:55 PM 54.0 °F - 39.0 °F 57% 29.88 in 10.0 mi NNW 10.4 mph - N/A   Overcast
7:55 PM 52.0 °F - 39.9 °F 63% 29.88 in 10.0 mi NW 5.8 mph - N/A   Overcast
8:55 PM 50.0 °F - 39.0 °F 66% 29.90 in 10.0 mi Calm Calm - N/A   Scattered Clouds
9:55 PM 46.9 °F - 39.0 °F 74% 29.91 in 10.0 mi WNW 4.6 mph - N/A   Scattered Clouds
10:55 PM 46.9 °F - 39.0 °F 74% 29.91 in 10.0 mi NNW 3.5 mph - N/A   Clear
11:55 PM 43.0 °F 41.3 °F 39.0 °F 86% 29.91 in 10.0 mi NNW 3.5 mph - N/A   Clear